Location: Unspecified
(0.0000°N, 0.0000°E)
Time: 10:53:50
(UTC+00:00)

SAUDISAT 4 - Visible Passes

Search period start: 05 June 2023 00:00
Search period end: 15 June 2023 00:00
Orbit: 607 x 676 km, 97.6° (Epoch: 04 June)

Date Brightness Start Highest point End Pass type
(mag) Time Alt. Az. Time Alt. Az. Time Alt. Az.
05 Jun ? 04:55:13 10° SE 04:59:01 28° E 05:02:45 10° NNE visible
06 Jun ? 05:18:27 10° SSE 05:22:51 63° ENE 05:27:07 10° N visible
08 Jun ? 04:32:09 10° ESE 04:34:09 13° ENE 04:36:06 10° NE visible
09 Jun ? 04:54:13 10° SE 04:57:58 28° ENE 05:01:38 10° NNE visible
10 Jun ? 05:17:26 10° SSE 05:21:47 62° ENE 05:26:01 10° N visible
12 Jun ? 04:31:12 10° ESE 04:33:04 13° ENE 04:34:54 10° NE visible
13 Jun ? 04:53:12 10° SE 04:56:53 27° E 05:00:29 10° NNE visible
14 Jun ? 05:16:24 10° SSE 05:20:41 61° E 05:24:54 10° N visible
